Regional Weather Roundup
Issued by NWS

Home | Current Version | Previous Version | Text Only | Print | Product List | Glossary Off
Versions: 1 2 3 4 5 6 7 8 9 10 11 12 13 14 15 16 17 18 19 20 21 22 23 24 25 26 27 28 29 30 31 32 33 34 35 36 37 38 39 40 41 42 43 44 45 46 47 48 49 50

000
ASUS43 KOAX 240502
RWRNE

WEATHER ROUNDUP FOR NEBRASKA
NATIONAL WEATHER SERVICE OMAHA NE
1100 PM CST THU FEB 23 2017

NOTES: SATELLITE DATA IS BEING USED TO AUGMENT CLOUD COVER ABOVE
       12000 FEET.
       "FAIR" INDICATES FEW OR NO CLOUDS BELOW 12,000 FEET WITH NO
       SIGNIFICANT WEATHER AND/OR OBSTRUCTIONS TO VISIBILITY.

  * THESE STATIONS DO NOT REPORT WEATHER SUCH AS RAIN...SNOW OR FOG.

NEZ001>004-019>022-054>056-240600-
NEBRASKA PANHANDLE

CITY           SKY/WX    TMP DP  RH WIND       PRES   REMARKS
SCOTTSBLUFF    CLOUDY    24  18  77 N13       29.90R WCI  12
ALLIANCE       LGT SNOW  21  18  88 N16       29.87S FOG     WCI   7
CHADRON        LGT SNOW  24  21  88 NE12      29.95R FOG     WCI  13
SIDNEY         MIX PCPN  21  17  84 N23       29.82S FOG     WCI   5
$$

NEZ057>060-069>072-079>082-240600-
SOUTHWEST NEBRASKA

CITY           SKY/WX    TMP DP  RH WIND       PRES   REMARKS
NORTH PLATTE   LGT SNOW  25  20  81 N16G24    29.79R WCI  12
IMPERIAL       FLURRIES  24  20  84 MISG      29.82R
LEXINGTON      CLOUDY    28  24  85 N21       29.76R WCI  15
MCCOOK         CLOUDY    27  24  89 N17       29.77S WCI  14
OGALLALA       LGT SNOW  26  22  87 N21G26    29.82S WCI  11
$$

NEZ005>010-023>029-035>040-094-240600-
NORTH CENTRAL NEBRASKA

CITY           SKY/WX    TMP DP  RH WIND       PRES   REMARKS
VALENTINE      FOG       23  19  85 N20G29    29.89R VSB 1   WCI   8
AINSWORTH      CLOUDY    23  23  98 N29G35    29.85S WCI   6
BROKEN BOW     MIX PCPN  26  23  88 N26G32    29.75S FOG     WCI  10
O`NEILL        CLOUDY    27  26  96 N20G26    29.82R WCI  13
ORD            LGT SNOW  27  22  81 N17G25    29.76S WCI  14
THEDFORD       CLOUDY    24  22  91 N21G31    29.82S WCI   9
$$

NEZ041-046>049-061>064-073>077-083>087-240600-
SOUTH CENTRAL NEBRASKA

CITY           SKY/WX    TMP DP  RH WIND       PRES   REMARKS
GRAND ISLAND   LGT SNOW  29  28  96 N18G26    29.71R FOG     WCI  16
AURORA         CLOUDY    30  29  95 N18       29.69R WCI  18
HASTINGS       LGT SNOW  30  28  92 N17       29.70R FOG     WCI  18
HEBRON         CLOUDY    32  31  98 N13G20    29.64S WCI  22
HOLDREGE       CLOUDY    28  27  93 N16       29.72R WCI  17
KEARNEY *      CLOUDY    28  25  86 N18       29.72S WCI  16
YORK           CLOUDY    32  30  93 N22G28    29.65S WCI  19
$$

NEZ011>018-030>034-042>045-240600-
NORTHEAST NEBRASKA

CITY           SKY/WX    TMP DP  RH WIND       PRES   REMARKS
NORFOLK        LGT SNOW  29  26  89 N13       29.70F FOG     WCI  19
ALBION         LGT SNOW  30  26  86 N17G23    29.72F WCI  18
BLAIR          LGT SNOW  33  32  96 N17       29.62F WCI  22
FREMONT        LGT SNOW  32  32 100 N7        29.66F VSB 3/4 WCI  25
TEKAMAH        SNOW      32  31  96 N16       29.69R VSB 1/2 WCI  21
WAYNE          LGT SNOW  30  29  96 NE22      29.74R WCI  16
$$

NEZ050>053-065>068-078-088>093-240600-
SOUTHEAST NEBRASKA

CITY           SKY/WX    TMP DP  RH WIND       PRES   REMARKS
LINCOLN        LGT SNOW  33  31  92 NE23G35   29.58F FOG     WCI  21
OMAHA EPPLEY   LGT SNOW  33  29  85 N15       29.63R FOG     WCI  23
BEATRICE       CLOUDY    34  34  99 NE17G26   29.56F WCI  23
FALLS CITY     LGT RAIN  40  39  97 NW31G41   29.57R FOG     WCI  28
NEBRASKA CITY  CLOUDY    35  35 100 N16G23    29.58R WCI  25
PLATTSMOUTH    FLURRIES  34  32  92 N13       29.62S WCI  25
$$

NEZ044-045-051>053-067-240600-
OMAHA AREA

CITY           SKY/WX    TMP DP  RH WIND       PRES   REMARKS
OMAHA EPPLEY   LGT SNOW  33  29  85 N15       29.63R FOG     WCI  23
BLAIR          LGT SNOW  33  32  96 N17       29.62F WCI  22
FREMONT        LGT SNOW  32  32 100 N7        29.66F VSB 3/4 WCI  25
MILLARD        LGT SNOW  35  34  94 N7        29.64R WCI  29
OFFUTT AFB     FLURRIES  34  32  92 N12G17    29.62R WCI  26
PLATTSMOUTH    FLURRIES  34  32  92 N13       29.62S WCI  25
WAHOO          LGT SNOW  32  31  96 NE21      29.61F WCI  20
$$




USA.gov is the U.S. government's official web portal to all federal, state and local government web resources and services.